ARIANE 2 DEB, 33569

Orbit data source: Space-Track

ARIANE 2 DEB, 33569 is space debris in HEO originally from a launch on Fri, 27 Jan 1989 UTC launched from the French Guiana (FRGUI). Debris objects in space refer to the collection of defunct objects orbiting the Earth. Examples of debris include non-operational satellites, rocket bodies, and fragments generated from explosions, collisions, or faulty payload assembly.

Loading next visibility...
Identifier
33569, 1989-006BM
Orbit
HEO
Country
Flag of FRFR
Related business
Manufacturer
EADS/LV
Mission
Spacecraft
Bus & Motor
Unknown
Mass
Unknown
Launch date (UTC)
1989-01-27 (37 years ago)
Launch vehicle
Unknown
Launch site
French Guiana (FRGUI)
Object type
Payload
Rocket body
Debris
Shape & HBR
Unknown shape, 0.1 m
Radar Cross Section
Medium (>0.1 m² and <1 m²)

Expand to show TLE details & history
Last TLE update: 1 week ago

TLE from 1 week ago
0 ARIANE 2 DEB
1 33569U 89006BM  26165.66040204 -.00000019  00000-0  50020-4 0  9993
2 33569   8.6958 214.0504 7082723 149.4654 353.5042  2.29724109 31699
Epoch: 2026-06-14T15:50Z
TLE epoch observation values (Epoch: 2026-06-14T15:50:58.736Z)
Latitude
8.55047°
Longitude
174.00725°
Altitude
1,901.411 km
Speed
8.936 km/s
True Right ascension
20h 58m 50s
True Declination
8° 30' 25"
Sunlit
Object was in daylight at epoch
Visualization orbit readout
Latitude
Unknown
Longitude
Unknown
Altitude
Unknown
Speed
Unknown
Apparent Right ascension
Unknown
Apparent Declination
Unknown
Sunlit
N/A
Visualization observer readout
Local Sidereal Time
23:20:09
Azimuth
Unknown
Elevation
Unknown
Doppler factor
Unknown
Orbital elements
Apogee altitude
35,076.904 km
Perigee altitude
701.287 km
Semi-major axis
24,267.233 km
Eccentricity
0.70827
Inclination
8.6958°
RAAN
214.0504°
Arg. of periapsis
149.4654°
True anomaly
311.4502°
Mean anomaly
353.5042°
Eccentric anomaly
338.88575°
Mean motion
0.57413 °/min
Orbital period
627.03 mins
BSTAR
0.00005002
Loading maneuver chart data...
Computing Atmospheric mass density...
Loading historical data...
Loading historical data...
Loading historical data...
Loading historical data...
Loading historical data...
Loading historical data...
Loading historical data...

Documentation

Showing up to 5 results
|